Wind_Speed
6 5 6 10 13 16 16 16 15 13 13 14 14 16 17 21 21 14 16 20 20 22 20 17 18 19 20 18 18 21 22 22 24 25 27 29 30 32 33 34 36 36 37 37 37 36 36 36 36 35 36 35 36 36 36 35 35 35 34 34 34 34 35 35 35 34 34 34 34 34 35 36 36 38 39 39 39 42 48 51 50 49 46 46 49 50
5 3 9 13 12 14 14 13 14 13 14 14 15 17 17 23 23 15 16 19 18 18 16 16 19 21 20 16 18 22 22 23 25 27 28 29 30 32 33 33 34 35 35 35 35 34 33 33 33 33 33 34 34 34 34 35 35 35 35 34 34 33 33 34 34 33 32 30 30 30 32 32 31 32 37 40 38 36 38 46 51 50 46 44 47 48
2 5 11 11 11 12 11 11 13 13 15 16 18 20 21 25 23 17 18 19 17 14 14 16 20 22 19 16 21 24 22 24 26 27 28 29 31 31 31 33 34 35 34 33 33 32 32 32 31 31 30 31 32 32 33 33 34 34 34 35 35 35 34 34 33 32 31 29 28 27 28 29 29 29 30 34 38 37 34 36 42 47 47 46 46 46
1 8 10 9 10 9 8 9 11 14 17 19 21 22 23 24 22 20 22 20 15 12 12 15 20 22 15 15 22 21 21 25 25 27 28 29 30 31 32 35 35 35 34 33 33 32 33 32 31 30 29 31 32 32 32 32 33 34 35 36 36 37 37 36 35 34 33 31 29 27 26 27 29 29 28 28 32 37 37 35 35 37 40 42 43 43
4 9 8 8 9 9 10 10 12 16 18 19 21 21 22 22 20 19 19 17 13 10 12 17 20 17 13 17 22 19 21 25 26 27 28 29 30 32 35 36 35 36 35 35 35 34 34 32 31 30 30 32 35 35 33 32 35 37 37 39 39 39 40 40 39 37 36 35 33 31 29 28 28 29 29 28 29 32 36 37 36 34 33 35 37 39
8 9 7 7 9 11 13 15 16 19 19 18 18 19 21 21 19 16 12 12 10 7 11 16 13 12 19 20 17 18 22 24 25 26 27 29 32 34 36 36 36 36 37 37 37 36 36 35 33 32 34 37 38 38 37 37 43 45 43 44 45 44 44 44 44 42 40 39 38 37 35 33 32 32 32 32 31 31 34 36 37 37 35 33 33 33
8 7 6 6 10 13 15 16 18 19 19 18 18 19 20 20 19 14 10 11 8 5 9 9 7 13 24 21 15 19 22 22 24 25 26 30 33 35 35 36 37 37 37 37 37 38 38 38 38 39 41 43 43 43 43 45 52 54 51 49 49 49 50 49 49 48 45 43 42 41 40 39 37 36 36 36 35 34 34 35 36 37 38 37 35 32
5 4 4 7 11 14 16 16 18 19 18 17 18 20 21 20 18 10 8 11 6 4 6 6 10 14 18 17 17 21 23 23 26 26 28 31 32 34 35 35 37 36 37 38 38 39 40 41 42 44 46 47 48 49 50 51 54 56 54 50 48 50 51 51 51 51 50 48 47 45 44 43 42 40 39 39 39 38 37 37 37 37 37 38 39 37
3 0 4 8 13 15 17 17 18 18 17 19 19 21 22 21 15 8 7 11 4 4 5 7 15 11 13 18 18 20 25 26 27 29 29 31 32 33 34 35 36 36 37 38 39 40 42 44 46 47 50 52 53 53 53 52 52 52 51 49 46 46 48 49 49 50 51 50 49 47 46 46 46 45 43 42 42 42 42 40 39 39 39 38 39 40
2 3 5 8 13 16 16 16 18 17 18 19 18 21 21 17 13 7 6 10 2 5 5 8 15 10 12 20 16 19 27 26 28 30 29 31 32 33 33 34 35 35 36 37 39 41 43 45 47 50 53 54 55 54 52 51 49 49 48 47 46 44 45 46 46 47 48 49 49 48 48 47 47 48 47 46 44 44 45 44 43 42 42 41 40 40
4 5 5 8 13 14 15 15 17 15 18 19 18 22 18 10 9 6 5 9 1 4 4 5 12 11 7 14 16 21 27 26 28 29 29 32 32 33 34 34 35 35 36 37 39 42 44 48 50 52 53 53 53 52 51 49 48 48 47 46 46 45 44 44 45 46 46 47 47 47 47 47 47 48 49 49 47 45 45 46 46 45 45 44 43 41
4 6 6 7 10 12 13 15 15 15 17 17 18 24 17 7 5 4 5 5 3 4 5 5 16 14 7 12 20 24 26 26 27 28 30 32 32 33 33 33 34 34 36 38 41 44 46 49 50 51 51 51 51 50 50 50 49 49 47 46 45 44 44 43 44 45 46 46 46 46 46 46 46 46 47 48 48 47 45 45 47 47 47 47 46 45
5 7 6 5 8 11 12 14 14 15 17 17 20 24 16 6 5 1 3 3 2 5 4 8 19 15 13 17 23 24 25 24 26 29 31 32 32 33 33 33 33 33 36 39 42 46 47 48 48 49 50 50 50 50 50 50 51 50 48 47 45 44 43 43 43 43 44 45 46 46 45 45 45 44 44 45 45 46 46 44 44 46 47 47 47 47
5 7 7 7 8 11 14 15 14 15 17 18 21 22 12 3 4 3 3 3 4 7 10 17 20 13 15 21 24 23 23 23 27 30 31 32 33 33 33 33 33 33 37 41 44 46 47 47 48 49 50 50 49 49 49 50 51 51 49 47 45 44 43 42 42 42 42 43 44 45 46 45 45 45 44 44 44 44 45 45 44 43 44 45 46 46
3 6 6 7 8 11 14 13 13 15 15 15 17 16 9 4 3 2 3 2 5 13 20 19 11 9 16 24 25 22 21 24 29 31 32 34 33 33 34 33 33 36 39 43 45 46 47 48 49 49 50 49 49 48 49 49 50 51 50 48 46 45 43 42 41 42 42 42 42 44 45 46 45 45 45 44 44 43 43 44 44 43 42 42 43 44
4 6 8 8 8 12 14 10 11 13 10 12 13 11 8 3 3 3 5 7 8 12 16 10 9 18 28 28 23 19 22 26 29 31 32 33 33 34 35 34 34 37 41 43 45 46 47 48 49 49 49 49 49 49 49 49 50 50 49 49 48 46 44 43 41 41 41 41 42 42 44 45 45 45 45 44 44 44 43 43 44 44 43 42 42 43
4 7 9 9 8 11 13 10 10 10 9 10 9 8 8 3 2 3 5 8 6 5 8 8 14 29 33 25 19 19 25 27 28 31 32 32 34 34 34 35 35 39 42 43 44 46 47 47 48 49 48 49 49 49 50 51 51 51 49 48 48 47 45 44 43 42 42 42 42 42 43 44 45 46 46 46 45 45 45 44 44 44 44 43 43 43
6 8 9 11 9 10 14 11 9 8 8 9 6 6 7 3 2 3 2 3 3 1 7 9 16 28 26 18 21 25 25 27 30 32 32 33 34 35 35 35 37 40 42 43 45 46 47 47 47 47 48 48 49 50 51 52 52 51 50 48 47 47 47 46 45 43 43 43 44 44 44 44 45 46 47 48 47 46 46 45 45 45 44 45 44 44
6 7 8 11 12 11 14 11 9 9 8 8 6 6 5 2 3 3 1 2 2 1 6 10 14 24 26 20 24 27 25 28 32 32 33 35 35 35 36 37 39 42 43 44 46 46 47 48 47 47 48 48 49 50 51 51 52 51 50 49 48 46 46 46 46 45 44 45 46 46 46 46 46 46 46 47 48 48 47 47 47 46 45 46 45 45
6 5 6 9 13 13 15 12 9 9 9 8 7 6 6 5 6 6 4 4 3 2 4 8 7 19 29 25 25 27 26 30 34 35 36 37 37 37 37 39 41 43 44 45 46 46 47 47 47 47 48 48 49 50 51 51 51 51 51 50 48 47 45 45 45 46 46 46 47 47 47 47 46 45 45 46 47 48 48 48 48 47 46 46 45 45
7 5 5 8 11 13 15 13 10 11 10 9 9 7 6 6 6 8 10 11 7 3 2 1 4 24 36 30 25 28 28 32 36 38 39 39 39 39 38 40 42 43 45 46 46 47 47 47 47 47 48 49 50 50 51 51 51 51 51 50 49 48 46 46 45 46 46 47 47 46 46 46 46 45 45 44 45 46 47 47 47 47 47 46 45 45
8 7 8 10 11 14 16 16 14 14 12 12 12 10 10 10 6 5 6 12 13 9 6 2 5 31 44 33 27 31 31 37 39 38 40 41 40 41 41 42 43 44 46 46 46 47 46 47 47 48 49 50 51 51 51 51 51 51 51 50 50 49 48 47 47 46 46 46 46 46 45 45 45 45 45 44 44 45 46 47 47 47 47 46 46 45
10 10 11 12 12 14 16 16 16 15 14 15 14 14 14 13 10 7 4 9 11 13 15 6 6 32 48 36 29 34 37 41 41 38 41 41 41 42 43 44 44 46 47 47 47 47 46 47 47 48 50 49 50 51 51 52 52 51 51 50 50 50 49 48 48 47 47 46 45 46 46 45 45 45 45 44 44 44 45 46 46 47 47 47 47 46
11 11 12 14 16 16 15 16 16 16 16 17 18 18 18 17 17 14 12 14 12 15 18 6 6 32 48 39 34 40 43 43 40 38 40 42 44 44 44 45 46 46 48 48 48 47 46 47 48 49 50 49 50 51 51 52 52 51 51 50 50 50 49 48 48 48 48 47 46 45 46 46 45 45 45 44 44 44 44 44 45 46 46 46 47 47
11 11 12 13 13 11 10 10 12 15 17 20 22 22 23 22 19 17 17 16 14 19 20 9 11 38 50 44 43 46 44 43 40 38 41 43 45 45 45 47 46 47 49 48 47 47 47 48 49 49 50 50 50 50 51 52 52 51 51 50 50 50 49 49 48 48 48 48 47 46 45 46 46 45 44 44 44 44 44 44 43 44 44 45 46 46
13 14 15 10 6 6 9 9 12 17 18 22 26 26 26 24 20 19 16 14 14 19 19 17 24 47 55 49 48 48 44 42 40 39 42 44 45 46 46 46 47 47 48 47 47 48 48 49 49 49 50 50 50 50 51 51 51 51 51 50 50 50 50 50 49 49 48 47 47 47 46 45 45 45 45 44 43 43 43 43 43 43 43 43 44 44
17 19 19 17 16 18 21 21 20 22 24 27 30 30 29 27 24 23 18 20 23 20 24 37 48 52 55 52 50 49 44 42 41 40 42 44 45 46 46 46 47 47 47 47 48 48 49 50 50 50 50 50 50 50 50 51 51 51 51 50 49 50 50 50 50 50 49 47 47 46 46 45 44 44 44 44 44 43 43 43 43 42 42 42 42 42
21 23 22 22 24 25 27 27 26 27 30 32 33 33 34 31 29 30 29 33 33 21 28 51 53 47 53 55 50 47 43 41 43 41 41 44 45 45 46 46 47 47 47 47 48 49 50 50 50 51 51 51 51 51 50 51 51 50 50 50 49 50 50 50 51 51 50 48 47 45 45 45 45 44 44 44 44 43 43 42 42 42 42 41 41 41
23 26 27 27 27 27 27 29 29 30 32 34 36 36 36 33 33 37 40 42 38 31 39 54 52 48 55 54 48 45 41 40 42 41 42 45 45 46 47 47 46 46 47 47 48 49 50 50 51 51 51 51 51 51 51 51 51 51 51 50 50 50 50 51 51 51 50 49 47 45 44 44 44 44 44 43 43 43 42 42 42 42 41 41 41 40
23 27 29 29 32 32 30 30 31 32 34 36 38 38 37 38 40 45 47 45 42 43 50 53 51 53 54 48 45 44 40 40 41 42 44 46 46 48 49 48 47 47 47 48 49 49 49 50 51 51 51 51 51 51 51 51 51 52 51 51 51 51 51 51 52 52 51 50 48 46 45 43 43 44 44 43 42 41 41 41 41 41 40 40 40 40
24 27 29 31 35 36 35 33 33 32 32 35 40 43 43 44 46 46 44 39 37 43 47 46 49 54 49 44 44 44 41 41 43 45 47 48 48 49 49 48 48 47 48 49 49 49 50 50 51 51 51 50 50 50 51 51 52 52 52 52 52 52 52 53 53 53 52 50 48 47 45 44 43 43 43 43 42 41 40 40 40 40 40 40 39 39
25 27 32 31 31 38 39 34 32 32 30 36 46 46 40 37 36 35 35 33 33 39 42 40 45 50 48 45 45 45 41 42 46 48 49 50 50 50 49 49 48 48 49 50 49 50 50 50 51 51 50 50 51 51 51 51 52 52 53 53 53 54 54 54 53 53 52 50 49 47 46 45 43 42 42 42 42 41 40 39 39 39 39 39 39 38
27 28 32 26 25 37 38 30 33 31 24 33 45 41 31 28 29 34 41 40 37 37 39 41 46 49 49 46 45 43 42 45 48 49 49 51 52 51 49 49 49 50 51 50 51 51 51 51 51 51 51 51 51 51 51 52 52 53 54 54 55 55 55 54 54 52 51 50 48 47 46 45 44 42 41 41 41 40 39 39 38 38 38 39 38 38
31 30 31 26 25 33 36 34 33 24 17 31 41 36 32 36 40 44 47 43 37 35 39 44 48 48 44 42 42 43 46 49 50 50 51 53 53 51 50 50 51 52 52 52 53 53 52 52 52 52 52 52 52 52 52 52 52 53 54 55 55 56 55 54 53 51 50 49 47 46 45 45 44 42 41 40 40 39 38 38 38 37 38 38 38 38
34 32 31 29 27 33 39 32 18 13 26 40 43 40 45 49 47 44 43 41 38 37 41 45 45 43 42 42 44 46 49 51 51 53 53 52 52 51 51 53 53 53 53 54 54 54 54 54 53 53 53 52 52 52 51 51 52 53 55 55 55 56 55 53 51 49 49 49 47 45 44 43 43 41 40 39 39 38 37 37 37 37 37 37 37 37
36 33 33 33 29 29 28 16 9 23 48 55 50 48 49 45 38 35 39 47 45 41 43 46 43 42 44 46 48 49 50 52 55 55 53 51 51 51 53 55 54 54 55 55 55 55 55 54 54 53 53 52 52 51 51 51 52 53 55 55 55 55 54 51 50 48 48 48 46 44 42 41 41 40 39 38 38 37 36 36 36 36 36 36 36 36
35 34 35 33 29 26 23 23 29 39 50 55 53 48 43 38 35 32 38 49 51 46 45 43 41 45 49 49 51 50 51 55 57 56 53 52 53 54 55 56 55 55 56 55 55 56 55 54 54 53 52 52 51 50 50 51 52 54 55 54 54 53 51 49 48 47 47 46 44 42 41 40 39 38 38 37 37 37 36 35 35 35 35 35 35 34
31 34 35 30 26 26 23 23 22 18 28 47 52 45 41 38 35 35 39 50 54 47 41 41 43 49 51 50 51 52 52 56 58 57 54 54 55 57 57 57 56 56 56 55 55 56 55 55 54 53 52 52 51 50 50 50 52 54 54 54 53 51 49 48 47 46 45 43 41 40 39 38 38 37 36 36 36 36 36 34 34 33 34 34 34 33
26 30 34 31 30 30 24 16 10 13 32 52 51 45 43 39 41 42 38 45 52 44 37 43 48 50 51 50 52 53 53 56 59 58 56 55 57 57 56 57 56 56 56 56 56 56 55 55 54 53 52 51 50 50 50 50 52 53 53 53 51 49 48 47 46 45 43 40 39 38 37 37 36 36 36 35 35 35 35 34 33 33 33 33 33 32
25 27 31 34 37 38 33 24 23 31 46 56 51 49 48 47 48 37 22 33 49 44 40 48 50 50 52 51 52 53 53 55 58 58 56 57 57 57 56 56 56 56 56 56 56 56 55 54 54 53 52 51 50 49 49 50 51 51 51 51 49 47 47 46 45 44 41 39 36 35 35 35 35 35 35 35 35 35 34 33 33 33 32 32 32 31
27 27 29 34 38 40 37 32 33 44 55 56 50 47 45 42 36 25 22 41 53 46 45 50 49 50 53 51 52 55 55 56 58 58 57 57 57 56 56 56 57 57 57 56 56 56 55 54 53 52 51 51 50 49 49 50 51 50 50 49 47 45 46 46 45 44 41 37 35 33 34 34 35 34 34 34 34 34 33 33 33 33 32 32 31 31
27 25 27 32 33 34 36 33 33 40 50 50 42 41 40 34 31 33 44 55 53 49 50 49 47 50 52 52 54 56 56 58 59 58 58 57 57 57 57 57 58 58 57 57 56 55 54 53 52 51 51 50 49 49 49 50 50 49 49 47 45 44 45 45 44 43 41 37 34 32 32 33 34 34 33 33 34 33 32 32 33 33 32 32 31 30
30 26 29 33 30 25 25 21 17 27 44 51 48 47 46 44 44 51 56 54 51 52 50 45 47 51 52 53 56 56 58 60 59 58 59 58 57 58 58 59 59 58 58 57 56 55 54 53 51 51 51 50 49 49 49 49 49 49 48 46 45 44 44 43 43 42 41 37 34 32 31 32 32 33 33 33 33 33 32 32 32 32 32 32 31 30
34 32 32 36 32 24 23 24 28 43 56 58 56 53 53 54 54 55 53 50 49 47 44 44 50 52 52 54 56 57 59 60 59 60 59 58 58 59 58 60 60 58 57 56 54 53 52 51 51 50 50 49 48 48 49 49 49 48 47 45 44 43 43 42 41 40 39 37 35 33 32 32 31 31 32 32 33 33 32 31 31 31 31 32 31 30
39 41 39 40 40 39 42 48 53 57 57 55 54 52 51 51 50 47 47 46 44 44 44 48 51 53 53 53 54 57 60 60 60 61 59 58 59 59 59 60 59 57 56 54 53 52 51 50 50 49 49 49 47 47 48 48 48 47 46 44 43 43 42 41 40 39 38 37 36 34 33 32 31 30 31 31 32 32 32 32 32 31 31 31 31 31
45 45 44 45 48 51 53 54 53 52 51 51 51 48 46 46 44 43 43 43 44 46 47 49 51 52 52 52 54 57 59 60 61 60 59 58 59 59 60 60 58 56 55 53 51 51 49 49 49 49 49 47 46 47 48 47 47 47 45 44 43 43 42 41 39 38 37 36 36 35 34 33 32 31 30 30 31 32 32 32 32 31 31 31 31 31
47 45 44 46 48 49 50 49 48 47 48 48 47 46 45 45 44 43 43 45 47 48 49 50 51 51 51 53 55 57 59 61 61 60 59 59 59 60 60 58 57 55 53 51 50 49 48 48 48 48 48 47 46 47 47 47 47 46 44 43 43 42 41 40 39 38 36 36 35 35 35 34 33 32 31 30 30 30 31 32 33 32 32 31 31 31
47 46 45 46 47 47 49 49 47 46 47 46 45 47 47 47 47 47 47 47 48 48 50 50 50 51 52 53 54 57 60 61 60 60 60 60 60 60 58 57 56 53 51 49 48 47 47 48 48 48 47 46 46 46 46 46 46 45 44 43 42 42 41 39 38 38 36 36 35 35 34 34 33 32 31 30 30 30 30 30 31 32 32 32 32 32
45 44 42 42 45 48 49 48 46 47 49 46 44 47 49 50 51 51 50 49 48 49 50 50 51 51 52 53 55 58 61 61 60 60 60 60 60 58 56 55 54 51 49 48 46 46 47 47 47 48 47 46 46 46 46 45 45 44 43 42 41 41 40 39 38 37 36 36 35 34 34 34 33 32 32 31 31 30 30 30 31 31 31 31 32 33
39 38 37 40 44 47 46 44 44 47 50 48 47 48 50 50 51 52 50 49 48 48 50 51 52 53 54 56 58 60 60 60 59 59 59 60 58 56 55 53 51 49 47 46 45 46 46 47 47 47 46 46 46 46 45 45 44 43 43 42 41 41 40 39 38 37 36 36 35 34 34 33 33 32 32 31 31 30 29 29 30 31 31 31 31 32
31 32 35 37 40 42 42 42 42 45 49 49 49 50 50 50 50 51 49 47 48 50 53 54 55 56 57 59 59 59 59 59 59 59 59 58 56 54 53 50 48 47 45 44 45 46 46 46 47 46 46 46 46 45 45 44 43 42 42 41 41 40 39 39 39 38 37 36 35 35 34 34 33 33 32 32 32 31 30 28 28 29 30 31 31 31
Wind_Direction
306 321 12 43 38 23 14 11 14 11 5 360 355 356 351 347 357 6 0 354 343 338 341 341 344 347 345 346 345 340 337 339 337 334 331 329 326 324 324 325 327 328 328 328 327 326 324 320 318 315 313 311 309 307 306 305 304 304 302 301 298 297 296 295 295 295 293 290 287 283 282 283 278 266 258 258 259 256 254 254 256 258 257 256 252 244
310 351 47 49 39 23 12 5 5 2 359 357 351 352 350 350 356 1 360 353 342 340 339 339 341 339 341 345 343 339 339 340 337 332 331 329 327 327 329 329 330 330 329 328 326 322 319 315 312 311 309 308 307 305 304 303 304 304 304 304 302 299 297 296 295 296 297 296 294 289 284 284 285 274 261 256 256 255 252 252 254 256 256 256 254 246
326 56 55 43 29 22 8 355 356 353 352 353 351 350 351 355 355 347 347 347 345 345 337 337 337 333 339 343 338 339 340 339 336 333 333 330 330 331 331 331 329 329 327 324 321 316 313 309 305 305 305 306 306 305 304 304 303 304 304 303 303 302 299 297 296 295 297 298 298 297 292 289 290 290 279 267 262 259 255 252 252 253 254 254 254 249
45 65 55 35 24 11 350 343 341 342 350 353 352 354 354 357 352 337 335 342 350 347 332 335 334 330 335 334 334 338 338 338 336 334 334 332 332 332 330 330 329 328 327 324 320 315 311 306 302 302 303 304 305 303 303 304 304 304 304 305 304 305 304 301 298 296 295 297 297 297 297 295 294 296 297 289 278 272 266 259 253 251 251 249 248 248
81 72 51 28 12 352 341 333 331 344 356 357 355 355 353 352 348 330 326 337 344 340 339 343 336 325 324 330 333 337 339 339 337 335 335 332 331 331 329 329 329 328 327 324 321 317 312 307 302 301 303 306 305 302 302 307 309 308 306 306 306 306 306 305 302 299 296 295 294 293 291 291 291 291 292 289 285 280 276 271 264 256 253 250 247 245
88 75 46 22 355 346 342 338 347 358 360 358 354 352 350 347 340 323 315 331 333 332 341 347 346 319 318 328 332 336 339 338 336 334 333 330 328 328 328 327 327 325 325 323 321 318 314 309 305 303 305 307 306 302 300 303 307 309 307 305 304 303 303 302 302 301 298 296 294 293 290 287 285 284 283 283 283 284 282 280 276 268 261 257 252 248
89 66 33 5 347 346 343 346 358 359 356 356 351 349 350 342 332 316 310 333 335 333 331 344 3 315 313 327 332 333 338 336 333 331 328 326 324 324 325 324 323 323 323 322 320 318 315 312 307 305 306 307 306 304 302 299 301 306 307 305 302 301 301 300 299 299 298 297 295 293 292 291 288 285 284 285 287 290 289 287 286 282 273 265 260 256
103 69 11 345 339 337 341 352 0 357 355 351 345 348 348 338 328 304 306 337 328 306 305 310 340 313 297 320 331 330 336 334 330 327 325 324 322 322 322 321 321 321 321 321 319 317 314 312 309 308 308 307 307 307 306 304 303 306 309 308 304 301 301 301 299 298 297 296 295 292 291 291 290 288 285 284 284 287 289 289 290 290 286 278 270 265
151 336 318 331 333 337 350 2 0 355 348 343 346 349 342 333 327 287 305 341 302 254 270 300 343 332 284 312 331 329 331 333 329 325 324 323 320 320 320 320 321 321 321 319 318 316 313 312 311 310 310 310 311 311 311 311 309 309 311 311 309 305 303 303 302 299 298 297 295 293 291 289 289 288 286 284 283 282 284 285 286 288 290 288 282 276
225 289 304 327 336 346 358 0 354 349 342 342 347 345 338 332 323 283 310 344 262 226 265 304 351 357 297 312 331 329 326 328 327 324 324 321 319 320 320 321 322 320 320 317 315 314 312 312 311 311 312 313 314 315 315 315 313 312 312 312 312 309 306 305 304 302 300 298 297 294 293 291 289 287 286 284 282 281 280 280 281 282 284 286 286 284
273 282 292 326 340 349 353 349 348 343 340 344 344 343 345 336 318 270 299 342 188 228 264 276 339 346 303 311 323 324 323 323 323 322 323 321 320 322 321 322 322 320 318 315 313 312 311 312 313 313 313 313 314 315 315 315 314 313 313 313 312 311 309 306 304 303 301 299 298 296 294 293 291 288 285 283 282 280 278 277 277 277 278 280 282 283
277 278 279 313 336 344 344 342 342 337 342 347 343 348 356 346 321 238 272 348 135 269 269 252 320 320 259 293 318 321 320 319 320 321 322 322 322 323 323 322 321 318 315 313 311 311 312 313 313 313 313 314 315 315 316 315 315 314 314 313 312 310 308 305 303 302 300 299 298 297 296 294 293 290 287 284 282 281 279 277 276 275 275 275 277 279
269 287 278 296 335 341 335 338 339 338 346 347 346 358 8 5 2 315 272 334 222 261 261 283 315 305 259 292 319 321 317 316 318 321 322 322 323 323 322 321 319 315 313 312 311 312 313 313 314 314 314 315 315 315 315 315 314 314 313 313 311 309 306 304 302 300 299 298 297 297 296 295 293 291 289 287 285 284 282 280 277 275 274 273 272 273
283 303 293 297 328 335 331 338 346 345 349 350 354 8 21 47 26 340 289 318 277 273 284 294 307 295 279 309 324 320 315 316 318 321 322 322 324 323 321 320 318 314 312 312 313 314 315 315 315 315 315 315 315 314 313 312 312 312 312 312 310 307 305 303 301 299 297 296 294 294 294 293 292 291 290 288 286 285 284 283 280 276 275 274 272 271
291 296 289 288 308 331 338 341 344 346 350 349 356 10 27 92 115 254 256 264 285 296 298 294 291 283 296 318 325 319 317 320 321 322 322 322 323 321 320 319 318 316 314 314 314 315 316 316 316 316 316 315 314 313 311 311 311 311 312 311 310 308 305 303 301 299 297 295 293 291 291 291 292 291 290 289 288 286 284 283 283 280 277 275 274 273
301 290 282 272 288 328 341 335 332 343 351 344 346 2 14 52 171 222 244 257 277 301 302 284 266 292 306 315 319 318 321 323 323 322 321 321 322 320 319 319 318 316 315 314 314 315 316 316 316 316 315 314 313 312 311 310 310 311 311 311 310 309 308 305 303 300 298 296 293 291 290 290 291 291 290 289 288 287 285 283 283 282 281 278 276 274
311 304 287 268 280 326 337 327 324 337 344 338 339 355 4 1 243 250 254 272 289 302 292 269 279 301 312 318 320 321 324 325 325 323 321 320 320 318 318 320 317 315 314 314 314 315 315 315 315 315 314 313 313 312 311 311 311 312 312 311 311 310 309 308 305 303 299 297 295 292 291 290 290 290 290 289 288 287 286 285 283 282 281 280 278 276
310 309 288 262 264 312 326 318 308 315 329 335 334 344 352 349 267 255 254 314 2 297 279 268 280 297 303 311 322 323 323 326 327 324 321 320 319 317 318 319 317 314 314 314 315 315 315 315 314 313 313 312 312 311 311 311 312 312 312 312 312 311 310 308 306 303 300 298 295 293 292 290 289 289 289 289 288 286 285 284 283 282 281 280 279 278
320 309 287 258 252 290 315 308 292 293 307 322 327 331 331 298 238 241 250 327 333 244 287 284 285 290 288 298 320 321 317 324 328 325 321 319 317 317 319 318 316 314 314 315 316 316 315 314 314 313 313 312 311 311 311 312 312 312 312 312 312 311 310 308 305 303 300 297 295 294 292 291 289 288 287 286 286 285 284 283 282 281 280 279 279 278
327 296 280 265 257 282 304 295 273 277 290 304 313 321 319 288 256 254 235 218 218 179 276 298 298 293 300 313 320 316 314 319 326 326 321 318 317 318 319 317 315 314 315 316 316 315 314 314 313 313 312 311 311 311 311 312 312 312 313 312 311 310 308 306 303 301 299 297 295 294 293 291 289 287 285 284 283 283 282 282 281 280 279 278 278 277
323 283 270 272 265 279 294 290 278 280 283 281 287 296 301 294 270 268 261 241 228 184 217 333 281 291 309 326 319 312 315 318 324 325 320 317 317 317 317 315 314 314 314 315 315 315 314 314 313 312 312 311 311 312 312 312 312 312 312 311 311 310 307 305 302 300 299 297 296 295 293 292 290 288 286 285 283 282 281 281 280 280 279 278 277 276
317 291 271 269 272 281 287 286 279 276 274 274 283 285 289 299 281 262 268 247 230 212 225 175 254 290 311 327 317 314 317 318 324 323 317 316 316 315 315 313 313 313 314 315 314 315 314 313 313 312 311 311 312 312 312 312 312 311 311 310 310 309 307 306 304 302 301 300 299 297 295 293 291 289 288 286 285 283 282 281 280 280 280 279 278 277
306 298 279 274 286 290 287 281 271 267 269 269 276 278 282 294 280 249 237 251 238 223 238 228 232 291 311 322 315 316 319 319 323 321 315 315 313 314 314 312 312 313 313 314 314 315 314 313 312 311 311 312 312 312 312 311 311 310 310 310 309 308 308 307 306 305 304 302 301 300 298 296 293 291 289 287 285 283 282 281 281 281 281 280 280 279
301 299 289 292 299 292 282 275 266 266 270 269 275 278 276 282 282 273 261 262 260 235 238 214 216 283 308 320 312 316 318 319 323 319 315 314 312 313 312 311 313 313 312 314 314 314 314 312 312 311 312 312 312 312 311 311 311 310 310 309 308 308 308 307 307 306 306 305 303 302 300 298 295 292 290 287 285 283 281 281 280 281 281 281 281 280
296 291 290 301 312 303 287 279 271 272 275 277 281 280 279 282 279 274 263 256 262 255 243 194 228 281 305 313 307 314 318 318 321 318 313 312 311 312 312 311 313 311 311 313 313 314 313 311 312 312 312 312 311 311 311 310 311 310 310 309 309 309 309 308 308 307 307 306 304 303 300 298 296 294 291 288 286 284 282 282 281 281 281 281 280 280
286 281 281 283 284 276 279 287 289 290 287 283 283 280 281 282 272 267 261 238 248 259 239 218 254 286 305 308 305 313 318 317 319 315 312 312 311 311 311 311 311 310 312 314 314 313 312 311 312 312 312 312 312 311 311 310 311 310 310 310 310 310 310 310 310 308 307 306 304 303 301 299 297 294 292 290 288 286 284 283 283 282 281 280 280 279
280 278 278 273 265 269 282 290 293 293 289 285 287 285 282 281 274 268 255 241 253 260 256 263 270 282 299 307 309 314 317 316 314 311 312 312 310 310 310 310 311 312 313 314 313 312 311 311 312 312 313 313 312 311 311 310 310 310 310 311 311 311 311 311 310 308 308 306 304 302 301 299 298 295 294 292 290 288 287 285 284 283 283 281 280 279
276 277 278 275 274 278 286 290 289 289 289 288 289 287 283 281 274 265 259 262 268 261 266 280 280 277 290 305 313 317 318 314 309 308 310 311 310 310 310 311 313 314 314 312 311 311 311 311 312 313 313 312 312 311 311 310 310 310 311 312 312 312 311 311 309 308 307 306 304 302 300 299 298 297 295 294 292 291 288 287 285 284 284 283 282 281
275 277 280 279 279 280 283 287 289 289 290 289 288 287 284 280 274 271 273 276 273 261 268 282 284 279 287 302 314 319 317 309 305 308 310 310 311 311 310 313 315 314 312 310 310 310 311 312 312 312 312 312 311 311 311 311 311 312 313 313 313 312 311 310 309 308 307 306 304 302 300 299 298 297 296 294 293 291 289 288 286 285 285 284 284 283
272 276 281 281 282 285 284 286 288 288 288 288 289 288 285 281 278 278 282 283 275 269 275 281 280 280 291 306 315 317 314 306 306 309 310 311 312 311 312 315 315 313 311 310 311 311 311 311 312 311 311 311 311 311 312 313 313 313 313 313 313 312 312 310 309 308 307 306 304 302 301 299 298 297 296 295 293 291 289 288 287 286 286 285 285 285
272 275 280 282 286 288 288 289 289 288 289 290 290 290 289 287 284 281 283 282 274 274 282 283 276 282 300 315 316 314 312 308 308 310 311 312 312 313 315 315 314 313 311 311 312 312 311 311 311 310 310 310 312 313 313 313 313 313 313 314 313 313 312 311 309 308 307 306 304 302 301 300 298 297 296 295 294 292 290 288 288 287 287 287 287 287
273 273 278 284 286 287 290 292 291 291 294 291 292 296 296 290 285 284 286 287 282 283 287 282 276 288 309 317 313 311 311 309 309 311 312 313 313 314 316 315 314 313 312 313 313 312 311 311 310 310 311 312 313 314 314 314 313 313 314 313 313 313 312 311 310 308 307 305 304 302 301 300 298 296 295 294 293 293 291 290 289 288 288 289 289 288
275 274 279 283 282 285 289 290 292 299 302 294 296 303 302 289 287 293 295 294 292 289 286 282 287 301 312 312 310 311 310 309 310 311 312 313 314 316 316 315 314 313 314 314 313 312 311 311 311 312 313 314 315 314 314 314 313 314 313 313 313 313 312 311 310 308 306 305 303 301 300 299 297 296 294 293 292 292 292 291 290 289 289 289 289 288
276 276 278 277 275 280 283 287 295 301 291 290 299 306 299 293 296 298 297 295 293 290 289 292 300 309 312 311 311 310 310 311 311 311 313 315 316 317 317 315 314 314 314 313 312 313 313 313 314 314 314 315 314 314 314 314 313 314 313 314 314 313 313 312 310 309 307 305 303 301 299 298 296 295 293 292 291 291 291 291 290 290 289 288 287 287
276 274 274 273 270 274 282 290 301 288 278 288 298 298 294 296 298 296 295 297 296 295 298 302 307 311 313 313 313 312 312 313 311 312 316 318 318 318 316 314 314 314 313 313 313 314 314 314 314 314 314 314 313 313 314 313 313 313 313 314 314 314 313 312 311 310 308 306 303 301 299 296 295 293 292 291 291 291 292 291 290 289 288 288 287 287
274 271 270 270 267 272 279 275 251 275 286 292 295 295 295 299 299 293 295 300 302 301 304 307 311 314 316 316 315 315 314 313 312 314 319 321 319 316 314 314 314 314 313 313 313 313 314 314 313 313 313 312 312 313 314 313 313 313 313 314 314 315 314 313 313 312 309 307 305 302 299 296 294 293 292 292 292 292 292 291 290 289 288 287 287 287
271 267 267 266 264 267 266 260 266 279 288 295 299 302 303 302 299 295 295 300 303 305 305 307 309 313 317 318 317 316 314 312 312 317 321 321 317 315 314 315 315 313 313 313 312 312 312 312 312 312 312 312 313 314 314 314 314 314 314 315 316 316 315 314 314 312 310 308 305 302 299 296 293 293 292 292 292 292 292 292 291 290 288 287 286 287
270 265 264 260 260 262 259 267 280 280 286 295 300 303 302 300 298 297 293 297 304 309 307 305 308 314 318 318 316 315 314 311 312 318 321 319 315 315 315 315 314 313 312 312 311 311 312 311 311 311 311 312 314 315 315 315 314 314 315 316 317 316 316 315 314 313 312 309 306 302 299 296 294 294 293 293 293 293 293 293 291 290 288 287 287 287
272 267 262 254 254 256 250 255 263 252 278 294 299 299 299 296 297 298 293 296 308 316 311 305 310 315 316 316 315 314 312 310 313 318 319 315 314 314 314 313 313 313 312 312 311 311 311 311 311 311 312 313 315 315 315 314 314 314 316 317 317 317 316 315 315 316 314 311 307 303 300 297 296 295 295 294 293 293 293 293 292 290 289 288 288 288
281 274 263 253 256 257 249 249 255 262 282 297 300 297 297 296 296 296 291 303 316 320 311 307 312 314 315 315 314 312 311 311 313 316 316 314 314 314 313 313 314 313 312 312 312 312 312 311 311 311 312 314 315 316 315 314 314 315 317 318 318 317 315 316 317 318 316 313 309 305 301 298 296 296 296 295 294 294 294 294 292 291 289 289 288 288
287 280 269 263 264 261 250 247 257 272 291 304 303 299 302 298 290 284 293 311 318 315 308 309 311 311 313 313 311 311 312 312 313 315 316 315 314 314 313 313 314 313 313 313 312 312 312 311 311 312 313 314 316 316 315 314 315 316 317 318 318 317 316 317 319 320 319 316 312 306 302 299 297 297 296 296 295 295 295 294 293 291 290 290 289 289
289 284 276 272 270 265 259 253 256 276 300 313 310 306 306 295 284 294 307 312 313 308 307 310 309 309 311 312 310 311 312 313 315 316 316 315 314 313 313 313 314 314 314 313 313 312 311 311 312 312 313 315 316 316 315 315 316 317 318 319 318 317 317 318 320 320 320 318 313 308 302 299 297 297 297 296 296 296 295 294 293 292 291 290 290 289
290 282 278 279 281 276 264 250 252 286 306 313 309 305 304 299 301 310 312 311 310 309 309 309 306 308 311 310 310 311 312 314 316 316 315 314 313 313 313 313 314 315 315 314 313 312 311 311 312 313 314 316 317 316 315 315 316 318 319 319 318 317 317 319 320 321 321 319 315 309 304 300 298 298 298 297 297 296 296 294 293 292 292 291 290 289
292 286 284 286 288 281 264 264 287 301 305 307 309 308 308 309 313 316 313 311 311 311 309 307 307 310 311 310 310 311 312 314 316 315 315 314 312 313 313 314 316 315 314 313 312 312 312 312 313 314 315 316 317 316 315 315 317 318 319 319 318 317 317 318 319 321 321 320 316 311 305 302 300 298 297 297 297 297 296 294 293 292 291 291 291 290
300 300 297 294 294 293 289 292 302 308 308 310 314 315 315 316 318 317 314 312 310 308 308 308 309 310 310 309 308 310 312 314 314 314 314 313 313 313 314 315 316 315 314 313 313 312 312 312 313 314 315 316 316 315 315 316 317 318 319 318 317 316 316 317 319 320 320 319 316 312 307 304 301 299 298 297 297 297 296 295 293 292 291 291 291 290
307 305 299 298 303 304 302 305 313 317 316 317 317 318 319 318 318 316 312 309 308 308 309 309 309 310 309 307 307 309 312 313 313 314 314 313 313 314 315 316 316 314 314 314 313 313 313 313 313 314 315 315 315 314 315 316 317 318 319 317 316 315 316 317 318 319 319 318 316 313 309 305 303 300 299 298 297 296 296 295 294 292 291 291 290 290
310 306 302 306 310 306 302 310 319 320 319 320 318 316 316 316 315 314 310 308 309 310 310 309 309 308 306 306 308 310 311 312 313 313 313 313 313 314 315 315 315 314 314 314 313 313 313 313 313 314 314 315 315 315 316 317 318 318 318 316 315 315 315 316 317 317 317 316 315 313 310 307 304 301 300 298 296 295 294 293 293 292 292 291 290 290
309 309 311 315 316 310 306 313 319 317 314 315 315 315 315 314 313 311 310 309 310 309 309 309 307 306 306 307 309 309 311 312 312 313 313 313 314 314 315 314 314 314 314 314 313 313 312 312 313 313 314 315 315 315 316 317 318 318 316 315 314 314 314 315 315 315 315 314 313 312 311 308 306 303 300 298 296 295 293 291 290 290 290 291 290 289
314 316 321 323 321 316 312 316 322 319 313 312 316 319 318 316 314 311 309 308 307 307 307 307 306 306 307 308 309 309 311 312 312 313 313 313 313 314 314 314 314 314 314 314 313 312 312 312 312 313 314 315 314 315 316 318 318 317 315 314 314 313 314 314 313 313 314 313 312 311 310 309 307 305 302 299 297 295 294 292 290 288 287 288 288 289
324 326 331 329 323 318 317 322 327 323 316 316 321 322 320 318 314 310 307 307 307 308 308 307 307 308 308 308 309 310 311 312 313 312 312 313 313 314 314 314 315 315 315 314 313 312 311 312 313 314 315 314 315 315 317 318 318 316 314 313 313 313 313 312 312 312 312 311 310 309 308 307 307 306 304 301 299 296 294 292 290 289 288 286 286 287
331 333 335 332 325 322 326 331 331 324 319 319 322 322 320 318 313 309 308 309 309 309 309 308 308 308 308 309 310 310 311 312 312 312 312 313 313 314 315 315 315 315 314 313 312 311 312 312 314 314 314 314 315 316 317 318 318 316 314 313 313 313 313 312 311 311 311 310 309 308 307 306 305 305 303 302 300 298 295 292 289 287 287 286 285 285
Height
3113 3112 3112 3112 3112 3112 3111 3111 3111 3110 3110 3108 3107 3106 3104 3102 3101 3100 3098 3096 3094 3091 3090 3089 3088 3087 3087 3087 3086 3084 3083 3082 3081 3080 3079 3077 3075 3073 3071 3069 3067 3065 3064 3062 3060 3058 3056 3055 3053 3051 3050 3048 3046 3044 3042 3040 3039 3037 3035 3034 3032 3030 3028 3026 3024 3022 3020 3019 3017 3016 3013 3010 3009 3008 3008 3008 3008 3008 3009 3009 3009 3009 3010 3010 3010 3010
3112 3112 3112 3112 3113 3113 3112 3111 3110 3110 3109 3107 3106 3105 3103 3101 3099 3098 3097 3096 3094 3092 3090 3088 3086 3085 3085 3085 3084 3082 3081 3080 3079 3078 3076 3074 3072 3070 3068 3067 3065 3064 3062 3060 3058 3057 3055 3053 3051 3050 3048 3046 3045 3043 3041 3039 3037 3034 3032 3031 3029 3027 3026 3023 3021 3019 3017 3015 3013 3012 3010 3008 3005 3004 3003 3003 3004 3003 3003 3003 3004 3004 3004 3004 3005 3004
3112 3112 3112 3112 3113 3113 3112 3111 3110 3109 3107 3106 3104 3102 3100 3099 3097 3096 3096 3095 3093 3091 3089 3087 3085 3083 3083 3083 3081 3080 3079 3078 3077 3075 3074 3071 3069 3068 3066 3065 3063 3062 3060 3058 3057 3055 3053 3051 3049 3048 3046 3044 3042 3041 3039 3037 3034 3032 3030 3028 3026 3024 3023 3021 3019 3017 3015 3013 3011 3009 3007 3005 3003 3001 3000 2999 2999 2998 2998 2998 2998 2999 2999 2999 2999 2999
3112 3112 3112 3112 3112 3113 3113 3112 3110 3108 3106 3104 3102 3100 3099 3098 3097 3095 3093 3093 3091 3090 3089 3087 3084 3082 3081 3081 3080 3078 3077 3076 3075 3072 3070 3068 3066 3065 3063 3062 3060 3058 3057 3056 3054 3053 3051 3049 3047 3045 3044 3042 3041 3039 3037 3035 3032 3030 3028 3026 3024 3021 3019 3018 3016 3014 3012 3010 3009 3007 3005 3003 3001 2999 2997 2996 2995 2994 2993 2993 2993 2993 2993 2993 2994 2994
3111 3112 3112 3112 3112 3112 3111 3110 3109 3106 3104 3103 3101 3100 3099 3098 3098 3095 3093 3092 3090 3089 3087 3085 3082 3079 3079 3080 3078 3076 3075 3074 3071 3069 3068 3065 3064 3062 3060 3058 3057 3055 3054 3052 3051 3050 3048 3047 3045 3043 3042 3040 3039 3036 3034 3032 3030 3028 3026 3023 3021 3019 3016 3014 3013 3011 3009 3007 3005 3004 3003 3001 2999 2997 2995 2994 2992 2991 2989 2988 2988 2988 2988 2988 2988 2989
3111 3111 3111 3111 3111 3110 3109 3107 3106 3104 3103 3103 3102 3101 3100 3098 3097 3095 3093 3092 3091 3089 3087 3085 3083 3078 3076 3077 3076 3074 3073 3071 3069 3067 3066 3064 3062 3060 3058 3056 3055 3053 3051 3049 3048 3046 3045 3044 3043 3041 3039 3037 3036 3034 3032 3029 3027 3025 3023 3020 3018 3015 3013 3011 3009 3007 3005 3003 3001 3000 2999 2998 2996 2995 2992 2991 2989 2988 2986 2985 2984 2983 2984 2983 2983 2984
3110 3111 3111 3111 3110 3109 3107 3106 3104 3103 3102 3102 3101 3100 3099 3097 3095 3093 3092 3091 3090 3089 3087 3086 3086 3080 3073 3073 3074 3072 3071 3070 3068 3066 3065 3063 3060 3059 3057 3055 3053 3051 3049 3047 3045 3043 3042 3040 3039 3037 3035 3033 3031 3030 3028 3025 3022 3020 3018 3016 3013 3011 3008 3006 3004 3002 3001 2999 2997 2995 2993 2992 2991 2990 2989 2987 2985 2983 2982 2981 2979 2979 2979 2979 2979 2979
3110 3110 3110 3109 3108 3107 3106 3105 3104 3102 3101 3101 3100 3099 3097 3095 3094 3092 3091 3090 3089 3088 3087 3086 3086 3081 3073 3071 3071 3069 3069 3068 3066 3065 3063 3061 3059 3057 3055 3053 3051 3048 3046 3044 3042 3040 3038 3036 3034 3033 3031 3029 3027 3025 3023 3021 3017 3014 3012 3010 3008 3006 3003 3000 2998 2996 2995 2994 2992 2990 2988 2987 2986 2985 2984 2983 2981 2980 2978 2977 2976 2975 2974 2974 2974 2974
3109 3109 3109 3108 3107 3106 3105 3103 3102 3101 3101 3100 3099 3097 3095 3094 3092 3090 3090 3089 3088 3087 3086 3084 3084 3080 3072 3069 3070 3067 3065 3065 3063 3061 3060 3058 3057 3055 3053 3050 3048 3046 3043 3041 3039 3037 3034 3032 3030 3028 3026 3023 3021 3019 3017 3014 3012 3009 3007 3005 3003 3001 2998 2995 2993 2991 2989 2987 2986 2985 2983 2981 2980 2979 2979 2978 2977 2975 2974 2973 2972 2971 2970 2969 2969 2968
3109 3108 3108 3107 3106 3105 3103 3103 3102 3101 3100 3098 3097 3096 3094 3092 3090 3089 3088 3088 3087 3086 3085 3083 3082 3080 3072 3066 3067 3066 3062 3062 3060 3058 3057 3055 3054 3052 3050 3047 3045 3043 3041 3038 3036 3034 3031 3029 3026 3024 3021 3018 3016 3014 3011 3009 3006 3004 3002 3000 2998 2996 2993 2991 2988 2986 2984 2982 2980 2979 2977 2976 2975 2973 2973 2972 2972 2971 2969 2968 2968 2967 2966 2965 2964 2964
3108 3108 3107 3106 3105 3104 3103 3103 3101 3100 3099 3097 3096 3094 3092 3090 3088 3088 3087 3086 3087 3085 3083 3081 3081 3082 3076 3066 3064 3064 3061 3060 3058 3056 3054 3052 3050 3048 3046 3044 3041 3039 3037 3035 3033 3030 3028 3025 3023 3020 3017 3014 3012 3009 3007 3004 3002 2999 2997 2995 2993 2991 2989 2986 2984 2981 2979 2977 2975 2973 2971 2970 2969 2968 2966 2966 2965 2965 2964 2963 2962 2961 2961 2960 2959 2959
3107 3107 3106 3106 3105 3104 3103 3102 3100 3099 3098 3096 3094 3091 3089 3088 3087 3086 3086 3086 3086 3083 3081 3081 3079 3081 3077 3067 3063 3062 3059 3057 3055 3053 3051 3049 3047 3045 3042 3040 3038 3036 3034 3032 3029 3027 3024 3022 3019 3016 3013 3010 3008 3005 3002 2999 2997 2995 2993 2991 2989 2987 2985 2982 2980 2977 2974 2972 2970 2968 2966 2964 2963 2962 2961 2960 2959 2958 2958 2957 2956 2955 2955 2954 2954 2954
3106 3105 3105 3105 3104 3103 3102 3101 3100 3098 3096 3094 3092 3089 3087 3087 3086 3086 3086 3086 3084 3081 3080 3080 3079 3077 3071 3064 3062 3060 3057 3055 3053 3051 3048 3046 3043 3041 3039 3037 3035 3033 3031 3028 3026 3023 3020 3018 3015 3012 3009 3006 3004 3001 2998 2995 2992 2990 2988 2986 2984 2982 2980 2978 2976 2973 2971 2968 2966 2963 2961 2959 2958 2956 2955 2954 2953 2952 2951 2950 2950 2949 2948 2947 2948 2947
3104 3103 3103 3103 3103 3102 3101 3100 3098 3096 3094 3092 3089 3088 3087 3089 3090 3089 3089 3087 3083 3079 3077 3078 3078 3073 3065 3060 3059 3057 3054 3053 3050 3047 3045 3042 3040 3038 3035 3034 3032 3030 3028 3025 3022 3019 3017 3014 3011 3008 3005 3002 2999 2997 2994 2991 2988 2986 2984 2982 2980 2977 2976 2974 2971 2969 2967 2964 2962 2959 2956 2954 2952 2951 2949 2948 2947 2946 2945 2944 2943 2943 2942 2941 2940 2940
3104 3103 3102 3102 3102 3101 3100 3098 3097 3095 3094 3092 3090 3089 3089 3090 3092 3092 3091 3088 3083 3078 3074 3074 3074 3068 3060 3057 3056 3053 3051 3049 3046 3044 3041 3039 3037 3035 3032 3031 3028 3026 3024 3021 3018 3016 3013 3010 3006 3003 3000 2997 2995 2992 2990 2987 2984 2981 2979 2977 2974 2972 2971 2969 2967 2964 2962 2960 2958 2955 2952 2950 2948 2946 2944 2943 2942 2941 2939 2938 2937 2936 2936 2935 2934 2933
3104 3102 3101 3101 3101 3100 3099 3097 3097 3095 3094 3092 3091 3090 3090 3090 3090 3091 3090 3087 3086 3082 3074 3069 3066 3061 3057 3054 3052 3051 3049 3046 3044 3041 3038 3036 3034 3032 3029 3027 3025 3022 3020 3018 3015 3012 3009 3006 3002 2999 2996 2993 2990 2987 2984 2982 2980 2977 2975 2972 2969 2967 2965 2963 2961 2959 2957 2955 2953 2950 2948 2945 2943 2941 2939 2938 2936 2935 2934 2932 2931 2930 2930 2929 2928 2926
3102 3101 3100 3099 3100 3099 3097 3096 3096 3095 3094 3092 3091 3090 3089 3089 3088 3089 3088 3086 3087 3085 3073 3065 3061 3056 3054 3051 3048 3048 3046 3043 3041 3038 3035 3033 3031 3029 3026 3024 3022 3019 3017 3014 3011 3008 3005 3002 2999 2995 2992 2989 2985 2982 2979 2976 2974 2972 2970 2967 2964 2961 2959 2957 2955 2953 2951 2949 2947 2945 2943 2941 2938 2936 2934 2932 2931 2929 2928 2927 2925 2924 2924 2923 2922 2920
3102 3100 3098 3098 3098 3097 3096 3095 3094 3094 3093 3091 3090 3089 3088 3088 3088 3088 3088 3086 3087 3085 3072 3063 3059 3055 3053 3049 3045 3044 3043 3040 3038 3035 3032 3030 3028 3026 3023 3021 3019 3016 3013 3011 3007 3004 3001 2998 2995 2991 2988 2985 2981 2978 2974 2971 2968 2965 2964 2961 2959 2956 2953 2951 2949 2947 2945 2943 2941 2939 2938 2936 2933 2931 2929 2926 2925 2923 2922 2921 2919 2919 2918 2917 2916 2915
3101 3099 3097 3096 3096 3096 3095 3094 3093 3092 3092 3090 3089 3089 3088 3088 3087 3086 3087 3085 3085 3085 3074 3063 3058 3053 3049 3046 3042 3041 3039 3037 3035 3032 3029 3027 3025 3022 3019 3017 3015 3012 3009 3006 3003 3000 2996 2993 2990 2987 2983 2980 2977 2974 2970 2967 2963 2960 2958 2955 2953 2951 2949 2946 2943 2941 2939 2937 2935 2933 2931 2930 2928 2926 2924 2921 2919 2917 2916 2914 2913 2913 2912 2911 2910 2910
3099 3098 3096 3095 3094 3094 3093 3092 3091 3090 3089 3089 3088 3087 3086 3086 3085 3084 3085 3083 3082 3083 3077 3066 3057 3048 3043 3042 3040 3038 3036 3034 3031 3028 3026 3024 3021 3018 3015 3013 3010 3007 3005 3002 2999 2996 2992 2989 2985 2982 2979 2975 2972 2969 2965 2962 2959 2955 2952 2950 2948 2946 2944 2941 2938 2936 2933 2931 2929 2927 2925 2923 2922 2920 2918 2916 2914 2912 2910 2908 2907 2906 2906 2905 2904 2904
3098 3097 3096 3094 3093 3093 3090 3089 3089 3087 3088 3087 3085 3085 3084 3084 3084 3082 3081 3080 3079 3080 3078 3072 3059 3042 3036 3039 3038 3035 3034 3031 3028 3025 3022 3019 3017 3014 3012 3009 3006 3003 3000 2998 2994 2991 2988 2984 2981 2977 2973 2970 2966 2963 2960 2957 2954 2950 2947 2944 2942 2940 2937 2935 2933 2930 2928 2925 2923 2921 2919 2917 2915 2913 2912 2910 2908 2906 2904 2903 2901 2900 2899 2898 2898 2897
3096 3095 3094 3093 3092 3090 3088 3087 3086 3086 3085 3084 3083 3083 3081 3081 3081 3081 3079 3076 3075 3075 3073 3072 3061 3037 3029 3036 3034 3032 3031 3027 3025 3022 3018 3015 3013 3010 3008 3005 3002 2999 2996 2993 2990 2986 2983 2979 2976 2972 2969 2965 2961 2958 2954 2951 2948 2945 2942 2940 2937 2934 2931 2929 2926 2924 2922 2919 2917 2915 2913 2911 2909 2907 2905 2904 2902 2900 2898 2896 2895 2893 2892 2891 2891 2890
3095 3094 3092 3091 3090 3088 3086 3085 3084 3083 3083 3081 3080 3079 3078 3078 3077 3078 3077 3072 3072 3072 3067 3070 3062 3034 3023 3031 3031 3028 3027 3023 3022 3019 3014 3011 3008 3006 3003 3000 2997 2994 2990 2988 2984 2981 2978 2974 2971 2967 2964 2960 2956 2953 2949 2946 2943 2940 2937 2935 2932 2929 2926 2923 2920 2918 2915 2913 2911 2908 2906 2904 2902 2900 2898 2897 2895 2893 2892 2890 2888 2887 2885 2884 2883 2882
3094 3092 3090 3089 3087 3085 3084 3082 3081 3081 3080 3078 3077 3076 3075 3075 3073 3074 3073 3070 3070 3066 3062 3069 3058 3026 3017 3027 3026 3023 3022 3019 3018 3015 3010 3007 3004 3001 2998 2995 2992 2988 2985 2982 2979 2976 2972 2968 2965 2962 2958 2955 2951 2948 2944 2941 2938 2935 2932 2929 2926 2923 2921 2918 2915 2912 2909 2906 2905 2902 2900 2897 2895 2893 2892 2890 2888 2886 2885 2883 2882 2880 2879 2878 2876 2875
3092 3090 3089 3087 3086 3083 3081 3080 3079 3078 3077 3075 3073 3073 3071 3070 3071 3070 3069 3069 3066 3057 3056 3062 3046 3018 3014 3022 3020 3019 3019 3014 3013 3011 3006 3003 2999 2996 2994 2989 2987 2984 2980 2978 2974 2970 2966 2963 2960 2956 2953 2950 2946 2943 2939 2936 2932 2929 2926 2923 2920 2918 2915 2912 2909 2906 2903 2900 2897 2896 2894 2891 2888 2886 2884 2883 2881 2879 2878 2877 2876 2874 2873 2871 2870 2869
3090 3089 3088 3087 3086 3083 3079 3078 3077 3075 3074 3072 3070 3069 3068 3067 3067 3065 3065 3066 3060 3051 3050 3049 3030 3013 3013 3016 3015 3016 3014 3010 3009 3006 3002 2998 2995 2992 2989 2985 2982 2979 2975 2972 2968 2964 2960 2957 2954 2951 2947 2944 2941 2937 2934 2930 2927 2924 2921 2918 2915 2912 2908 2905 2903 2900 2897 2894 2891 2889 2887 2884 2882 2879 2877 2876 2874 2873 2871 2870 2869 2868 2866 2865 2864 2863
3088 3086 3085 3085 3083 3081 3077 3075 3075 3073 3071 3069 3066 3066 3064 3063 3062 3061 3061 3057 3051 3049 3044 3032 3020 3014 3011 3011 3012 3012 3010 3006 3004 3001 2998 2995 2991 2987 2984 2981 2978 2974 2970 2966 2962 2958 2955 2951 2948 2945 2942 2938 2935 2932 2928 2925 2922 2919 2915 2912 2909 2906 2902 2899 2896 2893 2891 2889 2886 2883 2880 2877 2875 2873 2870 2868 2867 2866 2864 2863 2862 2861 2859 2858 2857 2856
3085 3083 3082 3081 3079 3077 3075 3073 3073 3070 3067 3065 3063 3061 3060 3059 3057 3055 3052 3047 3046 3048 3036 3019 3018 3016 3008 3006 3009 3007 3006 3003 2999 2997 2994 2990 2987 2984 2980 2977 2973 2969 2966 2961 2957 2954 2950 2946 2943 2939 2936 2933 2929 2926 2923 2920 2917 2913 2910 2906 2903 2900 2896 2893 2889 2886 2884 2882 2879 2877 2874 2871 2868 2866 2864 2862 2860 2859 2857 2856 2855 2854 2853 2852 2851 2850
3082 3079 3078 3077 3075 3074 3073 3071 3069 3067 3063 3060 3058 3056 3055 3054 3051 3047 3043 3041 3043 3041 3025 3014 3018 3014 3005 3005 3005 3003 3002 2999 2994 2993 2990 2986 2983 2979 2975 2972 2968 2965 2961 2957 2953 2949 2945 2941 2937 2934 2930 2927 2924 2921 2917 2914 2910 2907 2903 2900 2897 2894 2890 2887 2883 2880 2877 2875 2873 2870 2868 2865 2862 2859 2858 2856 2854 2852 2851 2849 2848 2847 2846 2845 2844 2843
3080 3076 3075 3073 3070 3069 3070 3068 3066 3063 3059 3056 3053 3051 3050 3048 3044 3039 3036 3035 3036 3030 3018 3013 3015 3008 3002 3004 3002 2998 2998 2994 2989 2988 2985 2982 2978 2974 2970 2967 2963 2960 2956 2952 2948 2944 2940 2936 2932 2929 2925 2922 2919 2915 2911 2908 2904 2900 2897 2894 2891 2887 2884 2881 2877 2873 2870 2868 2865 2863 2861 2859 2856 2853 2851 2849 2848 2846 2844 2843 2841 2840 2840 2839 2838 2837
3078 3074 3072 3070 3066 3063 3064 3064 3062 3059 3056 3052 3048 3045 3043 3041 3037 3033 3030 3030 3029 3022 3014 3013 3010 3002 2999 3002 2999 2994 2992 2988 2984 2982 2979 2976 2972 2968 2965 2961 2957 2954 2950 2946 2943 2939 2935 2931 2927 2924 2920 2917 2913 2910 2906 2902 2898 2894 2891 2888 2884 2881 2878 2874 2871 2867 2864 2861 2858 2856 2853 2851 2850 2847 2845 2843 2841 2840 2838 2837 2835 2834 2833 2832 2831 2830
3076 3073 3070 3070 3065 3058 3058 3060 3057 3054 3052 3047 3041 3038 3037 3034 3031 3027 3024 3024 3022 3016 3011 3010 3005 2996 2995 2997 2994 2990 2987 2984 2980 2976 2973 2970 2967 2963 2959 2955 2951 2948 2944 2941 2937 2933 2929 2926 2922 2918 2914 2911 2907 2904 2901 2897 2893 2889 2885 2881 2878 2875 2871 2868 2864 2860 2857 2854 2851 2848 2846 2844 2842 2841 2839 2837 2835 2833 2832 2831 2829 2828 2827 2826 2825 2824
3073 3071 3068 3069 3064 3055 3055 3056 3052 3051 3050 3041 3033 3031 3031 3029 3026 3022 3018 3016 3016 3013 3008 3003 2997 2992 2992 2992 2988 2985 2982 2979 2974 2971 2968 2964 2961 2958 2954 2950 2946 2941 2938 2934 2931 2927 2924 2920 2916 2912 2908 2904 2901 2898 2895 2891 2887 2883 2879 2875 2872 2869 2865 2861 2858 2854 2851 2848 2845 2842 2839 2837 2835 2834 2833 2831 2829 2827 2826 2825 2823 2823 2821 2820 2819 2818
3070 3069 3067 3067 3062 3054 3052 3052 3051 3051 3044 3030 3025 3028 3026 3023 3021 3017 3012 3009 3010 3008 3003 2997 2992 2991 2990 2987 2983 2980 2977 2973 2969 2966 2963 2959 2955 2952 2948 2944 2940 2936 2932 2928 2924 2921 2917 2913 2909 2905 2901 2899 2896 2892 2889 2885 2881 2877 2873 2870 2866 2862 2858 2855 2851 2848 2844 2841 2838 2836 2833 2831 2828 2827 2826 2824 2823 2821 2820 2819 2818 2817 2816 2814 2813 2812
3067 3066 3065 3063 3060 3053 3050 3053 3053 3044 3030 3020 3021 3023 3021 3018 3017 3012 3006 3004 3004 3001 2997 2993 2989 2987 2985 2982 2979 2975 2971 2967 2963 2960 2958 2955 2950 2946 2942 2939 2935 2931 2926 2922 2918 2914 2910 2906 2903 2900 2897 2894 2890 2887 2884 2880 2876 2872 2868 2864 2860 2856 2852 2848 2845 2842 2838 2834 2832 2829 2827 2824 2822 2820 2819 2818 2817 2815 2814 2813 2812 2811 2810 2808 2807 2806
3064 3064 3062 3060 3057 3052 3050 3051 3045 3030 3017 3016 3019 3018 3016 3014 3012 3007 3001 2997 2998 2997 2992 2988 2984 2982 2980 2977 2974 2970 2965 2960 2956 2953 2953 2951 2946 2941 2937 2933 2930 2926 2921 2917 2913 2909 2905 2902 2898 2895 2892 2889 2886 2882 2879 2874 2870 2866 2862 2859 2855 2850 2846 2842 2839 2836 2832 2828 2825 2823 2821 2818 2816 2814 2813 2811 2810 2809 2809 2808 2806 2805 2804 2803 2802 2801
3061 3060 3058 3057 3054 3050 3048 3043 3034 3024 3014 3010 3012 3014 3012 3009 3006 3003 2997 2990 2991 2993 2989 2983 2980 2978 2975 2972 2968 2965 2960 2954 2949 2948 2948 2945 2940 2936 2931 2927 2924 2920 2915 2912 2907 2903 2900 2897 2894 2891 2887 2884 2880 2877 2873 2869 2864 2860 2856 2853 2849 2844 2840 2837 2833 2830 2826 2823 2820 2817 2815 2812 2810 2808 2807 2805 2804 2803 2803 2802 2801 2800 2799 2797 2796 2795
3058 3056 3055 3054 3050 3047 3045 3039 3034 3028 3014 3004 3007 3010 3008 3005 3004 3001 2994 2985 2985 2989 2985 2980 2977 2973 2970 2967 2963 2959 2955 2948 2943 2942 2942 2939 2934 2930 2926 2922 2918 2914 2910 2907 2903 2899 2895 2891 2888 2885 2882 2878 2875 2871 2867 2863 2859 2855 2851 2847 2843 2838 2835 2831 2828 2824 2821 2818 2815 2812 2809 2807 2804 2803 2801 2800 2799 2798 2797 2796 2795 2794 2793 2791 2790 2790
3055 3052 3051 3050 3045 3043 3042 3038 3034 3024 3007 3000 3006 3006 3004 3003 3000 2998 2992 2982 2980 2985 2981 2974 2972 2969 2965 2962 2958 2954 2950 2943 2938 2937 2936 2932 2928 2925 2921 2917 2913 2909 2905 2901 2897 2894 2890 2886 2882 2879 2876 2872 2869 2865 2862 2858 2854 2850 2846 2842 2837 2833 2829 2826 2823 2819 2816 2812 2810 2807 2804 2802 2799 2797 2796 2795 2794 2792 2791 2791 2790 2789 2788 2787 2785 2784
3051 3049 3047 3044 3039 3037 3037 3033 3027 3015 3001 2999 3004 3002 3000 2999 2996 2996 2990 2979 2977 2980 2975 2969 2967 2964 2960 2958 2953 2949 2945 2939 2934 2932 2930 2925 2921 2918 2915 2911 2908 2903 2899 2895 2891 2887 2884 2880 2877 2873 2870 2867 2864 2860 2857 2853 2849 2845 2841 2836 2832 2828 2824 2820 2817 2814 2811 2807 2805 2802 2799 2797 2794 2792 2791 2789 2788 2787 2787 2785 2784 2783 2782 2782 2780 2779
3047 3045 3042 3038 3034 3033 3031 3027 3020 3008 2998 2999 3001 2998 2997 2996 2993 2992 2986 2976 2974 2974 2969 2965 2963 2959 2956 2953 2948 2943 2940 2936 2931 2927 2925 2920 2915 2911 2908 2904 2901 2897 2894 2890 2886 2882 2878 2875 2871 2868 2865 2861 2858 2855 2851 2847 2843 2839 2835 2831 2827 2823 2819 2815 2811 2808 2805 2803 2800 2797 2795 2792 2790 2788 2786 2785 2783 2783 2782 2781 2779 2778 2777 2776 2775 2774
3045 3042 3038 3033 3030 3028 3025 3023 3017 3004 2996 2998 2998 2995 2995 2992 2987 2984 2979 2974 2972 2969 2964 2962 2958 2954 2951 2948 2942 2938 2934 2930 2926 2922 2919 2915 2910 2906 2902 2898 2895 2891 2887 2884 2880 2876 2873 2869 2865 2862 2859 2856 2853 2849 2845 2841 2837 2833 2829 2826 2822 2818 2814 2810 2806 2803 2800 2797 2795 2793 2790 2788 2786 2783 2782 2780 2779 2778 2777 2776 2774 2773 2772 2771 2770 2770
3042 3038 3033 3029 3027 3025 3021 3019 3015 3002 2994 2996 2995 2992 2990 2987 2981 2977 2974 2970 2967 2963 2960 2957 2953 2949 2946 2941 2937 2932 2927 2924 2921 2917 2913 2909 2905 2901 2897 2893 2889 2886 2882 2878 2874 2871 2867 2863 2860 2856 2853 2850 2847 2843 2839 2835 2831 2827 2824 2820 2816 2813 2809 2806 2802 2798 2795 2792 2790 2788 2786 2784 2782 2780 2777 2776 2774 2773 2773 2772 2770 2769 2768 2766 2765 2765
3038 3034 3030 3026 3025 3023 3016 3010 3006 2999 2993 2993 2992 2988 2985 2979 2975 2973 2969 2964 2960 2958 2955 2951 2947 2945 2941 2935 2931 2927 2922 2919 2916 2911 2908 2904 2899 2895 2892 2887 2884 2880 2876 2873 2869 2865 2861 2857 2854 2851 2847 2845 2841 2837 2833 2829 2825 2822 2818 2814 2811 2808 2804 2802 2798 2794 2791 2788 2785 2783 2781 2780 2778 2776 2774 2772 2770 2769 2768 2767 2766 2765 2763 2762 2760 2760
3032 3030 3027 3023 3021 3018 3008 3000 2998 2996 2992 2989 2986 2983 2979 2974 2971 2968 2963 2958 2956 2953 2949 2945 2941 2939 2935 2930 2925 2921 2917 2914 2910 2906 2902 2897 2893 2889 2886 2882 2878 2874 2870 2867 2862 2859 2855 2851 2848 2846 2842 2839 2836 2832 2828 2823 2819 2816 2813 2809 2806 2803 2800 2797 2794 2791 2787 2784 2781 2779 2777 2775 2774 2772 2770 2768 2766 2764 2763 2762 2761 2761 2759 2758 2756 2755
3028 3025 3022 3018 3014 3009 3000 2995 2996 2993 2988 2985 2982 2977 2974 2970 2967 2964 2959 2954 2951 2949 2945 2941 2936 2933 2929 2924 2919 2915 2912 2908 2903 2900 2895 2891 2887 2883 2879 2876 2872 2868 2864 2860 2856 2853 2849 2846 2843 2840 2837 2834 2831 2826 2822 2818 2814 2811 2807 2804 2801 2798 2795 2792 2789 2786 2783 2780 2777 2774 2772 2771 2769 2768 2766 2764 2762 2761 2759 2757 2756 2756 2755 2753 2752 2750
3024 3021 3018 3014 3010 3004 2994 2991 2993 2989 2983 2981 2978 2973 2970 2967 2963 2960 2955 2950 2946 2944 2940 2936 2932 2927 2923 2919 2914 2910 2906 2902 2897 2893 2889 2884 2880 2877 2873 2869 2865 2861 2858 2855 2851 2848 2844 2841 2838 2834 2831 2829 2826 2821 2817 2814 2810 2806 2802 2799 2796 2792 2789 2787 2784 2782 2779 2776 2773 2771 2768 2766 2765 2763 2762 2760 2759 2757 2755 2754 2752 2751 2750 2749 2747 2746
3020 3017 3014 3010 3007 3000 2990 2987 2988 2984 2978 2977 2974 2968 2965 2962 2958 2955 2950 2945 2941 2938 2934 2931 2926 2922 2918 2914 2909 2904 2900 2896 2891 2887 2883 2879 2875 2871 2867 2863 2859 2856 2852 2849 2845 2842 2839 2835 2832 2829 2826 2823 2820 2816 2812 2809 2805 2801 2797 2794 2791 2787 2784 2782 2780 2777 2774 2772 2769 2767 2764 2762 2760 2759 2757 2756 2754 2753 2752 2750 2748 2747 2745 2744 2742 2741
3017 3014 3011 3007 3001 2994 2987 2985 2984 2977 2971 2971 2970 2966 2961 2957 2952 2949 2945 2941 2937 2932 2928 2925 2921 2917 2912 2909 2904 2899 2894 2890 2886 2881 2877 2873 2869 2865 2861 2857 2853 2850 2847 2843 2840 2836 2833 2830 2827 2824 2821 2818 2814 2810 2807 2804 2800 2796 2792 2789 2786 2782 2780 2777 2775 2772 2770 2767 2765 2762 2760 2758 2756 2754 2752 2751 2750 2748 2747 2745 2744 2742 2741 2740 2738 2736
3015 3012 3009 3004 2998 2991 2985 2984 2982 2975 2967 2965 2966 2963 2959 2954 2948 2943 2940 2936 2932 2927 2923 2919 2916 2912 2908 2903 2898 2893 2888 2884 2880 2875 2871 2867 2863 2859 2855 2851 2847 2844 2841 2838 2834 2831 2828 2825 2821 2818 2815 2812 2808 2805 2802 2799 2795 2791 2787 2784 2780 2777 2775 2772 2770 2768 2765 2763 2760 2758 2756 2753 2751 2749 2747 2746 2744 2743 2743 2742 2739 2737 2736 2735 2734 2732
3013 3009 3006 3002 2997 2990 2985 2982 2980 2974 2966 2962 2961 2959 2955 2950 2944 2939 2935 2931 2927 2922 2918 2913 2909 2906 2902 2897 2892 2887 2882 2878 2874 2869 2865 2861 2857 2853 2850 2846 2842 2839 2836 2832 2829 2825 2822 2819 2816 2813 2809 2806 2803 2800 2797 2794 2790 2786 2782 2779 2775 2773 2770 2767 2764 2762 2760 2758 2755 2753 2751 2749 2747 2745 2743 2741 2739 2738 2737 2737 2736 2734 2732 2730 2729 2728